Regional Weather Roundup
Issued by NWS Newport/Morehead, NC

Current Version | Previous Version | Graphics & Text | Print | Product List | Glossary On
Versions: 1 2 3 4 5 6 7 8 9 10 11 12 13 14 15 16 17 18 19 20 21 22 23 24 25 26 27 28 29 30 31 32 33 34 35 36 37 38 39 40 41 42 43 44 45 46 47 48 49 50
000 ASUS42 KMHX 290625 RWRMHX WEATHER ROUNDUP FOR EASTERN NORTH CAROLINA NATIONAL WEATHER SERVICE NEWPORT/MOREHEAD CITY NC 200 AM EDT THU SEP 29 2016 NOTE: "FAIR" INDICATES FEW OR NO CLOUDS BELOW 12,000 FEET WITH NO SIGNIFICANT WEATHER AND/OR OBSTRUCTIONS TO VISIBILITY NCZ015>017-031-032-045>047-102-103-290700- NORTH COAST CITY SKY/WX TMP DP RH WIND PRES REMARKS EDENTON CLEAR 76 76 100 SE3 30.01S ELIZABETH CITY CLEAR 73 71 93 SE6 30.01S KITTY HAWK CLEAR 73 73 100 CALM 30.01S MANTEO CLEAR 73 73 100 SE5 30.02S $$ NCZ045>047-081-094-103-104-290700- CENTRAL COAST CITY SKY/WX TMP DP RH WIND PRES REMARKS FRISCO PTCLDY 76 72 87 CALM 30.01R $$ NCZ095-097-098-100-101-290700- SOUTHERN COAST CITY SKY/WX TMP DP RH WIND PRES REMARKS BEAUFORT CLEAR 77 73 87 SE3 29.99S CEDAR ISLAND NOT AVBL JACKSONVILLE CLEAR 74 70 87 SE3 29.97F PINEY ISLAND PTCLDY N/A N/A N/A SE7 30.00S WILMINGTON CLEAR 76 70 82 SE5 29.97F $$ NCZ011>013-027>030-043-044-078>080-089-090>093-098-290700- COASTAL PLAIN CITY SKY/WX TMP DP RH WIND PRES REMARKS AHOSKIE CLOUDY 70 69 98 CALM 30.01S CLINTON MOCLDY 71 71 98 NW10 30.01R ELIZABETHTOWN CLEAR 73 72 94 CALM 29.96S GOLDSBORO CLOUDY 73 73 100 NW1 29.97S GREENVILLE PTCLDY 72 70 94 CALM 30.01S HAVELOCK PTCLDY 72 69 90 E3 30.00F KENANSVILLE CLOUDY 70 70 100 CALM 29.99S KINSTON CLOUDY 71 70 95 CALM 29.99F NEW BERN CLEAR 70 68 93 S3 30.00F RICHLANDS CLOUDY 71 70 96 E3 29.98F ROCKY MOUNT MOCLDY 71 71 100 CALM 29.99S FOG WASHINGTON CLOUDY 70 69 96 CALM 29.99F WHITEVILLE PTCLDY 74 71 89 CALM 29.95S $$ AMZ130-135-150-152-154-156-158-170-250-252-270-ANZ085-086-088-633-658-670-290700- MARINE OBSERVATIONS STATION/POSITION TIME TEMP WIND PRES WAVE SWELL AIR SEA DIR/SP/G HT/PER HT/PER (UTC) (F) (DEG/KT/KT) (MB) (FT/S) (FT/S) CHESAPEAKE LIGHT NOT AVBL 64 E VA BEACH 0550 75 74 120/ 4/ 6 1016.4 5/ 8 5/ 8 DUCK 0600 76 76 130/ 10/ 11 1015.7 2 E DUCK 0541 77 N/A 4/ 8 2/11 OREGON INLET 0600 75 78 100/ 4/ 5 1016.4 13E OREGON INLT 0600 77 N/A 4/ 7 3/ 7 HATTERAS CG 0600 78 79 140/ 3/ 4 1016.0 DIAMOND BUOY 0550 81 83 150/ 12/ 14 1015.8 4/ 8 3/ 8 CAPE LOOKOUT 0600 80 150/ 6/ 6 1015.4 BEAUFORT LAB 0600 80 77 170/ 7/ 8 1015.0 30 SE NEW RVR IN 0608 81 83 180/ 10/ 14 1015.3 30 SE NEW RVR IN 0555 83 N/A 3/11 2/11 27 SE WRIGHTSVLE 0608 81 81 190/ 10/ 16 1015.3 5 SE WRIGHTSVLE 0508 81 81 200/ 12/ 17 1016.2 225 S CAPE HAT 0550 81 83 190/ 14/ 16 1016.5 4/ 6 2/12 41 SE CHARLESTON 0550 79 82 190/ 16/ 21 1013.9 3/ 4 2/ 7 $$

USA.gov is the U.S. government's official web portal to all federal, state and local government web resources and services.